Oconto, WI

11:50 PM CDT on September 29, 2016 (GMT -0500)
Oconto Municipal

Weather History for KOCQ - July, 2014

Change the Weather History Date:

Saturday, July 5, 2014

  Actual Average Record
Temperature  
Mean Temperature 64 °F -  
Max Temperature 80 °F 79 °F 86 °F (2013)
Min Temperature 50 °F 53 °F 50 °F (2014)
Growing Degree Days 14 (Base 50)    
Moisture  
Dew Point 55 °F    
Average Humidity 62    
Maximum Humidity 94    
Minimum Humidity 44    
Precipitation  
Precipitation 0.00 in - - ()
Sea Level Pressure  
Sea Level Pressure 30.10 in    
Wind  
Wind Speed 5 mph (SW)    
Max Wind Speed 18 mph    
Max Gust Speed 25 mph    
Visibility 10 miles    
Events      
Averages and records for this station are not official NWS values.
T = Trace of Precipitation, MM = Missing Value Source: NWS Daily Summary

Daily Weather History Graph

Daily Weather History Graph

Search for Another Location

Airport or City:

Trip Planner

Search our weather history database for the weather conditions in past years. The results will help you decide how hot, cold, wet, or windy it might be!

Date:

Astronomy

Jul. 05, 2014 Rise Set
Actual Time 5:11 AM CDT 8:40 PM CDT
Civil Twilight 4:35 AM CDT 9:17 PM CDT
Nautical Twilight 3:46 AM CDT 10:05 PM CDT
Astronomical Twilight 2:44 AM CDT 11:07 PM CDT
Moon 1:27 PM CDT (7/5) 12:12 AM CDT (7/5)
Length of Visible Light 16h 42m
Length of Day
15h 28m
First Quarter, 52% of the Moon is Illuminated
Jul 5
First Quarter
Jul 12
Full
Jul 18
Last Quarter
Jul 26
New
Aug 3
First Quarter

Hourly Weather History & Observations

Time (CDT) Temp. Dew Point Humidity Pressure Visibility Wind Dir Wind Speed Gust Speed Precip Events Conditions
12:15 AM 63.0 °F 48.7 °F 60% 30.22 in 10.0 mi Calm Calm - N/A   Clear
12:35 AM 59.4 °F 50.2 °F 72% 30.22 in 10.0 mi Calm Calm - N/A   Clear
12:55 AM 55.2 °F 50.0 °F 83% 30.22 in 10.0 mi SW 3.5 mph - N/A   Clear
1:15 AM 57.7 °F 48.7 °F 72% 30.21 in 10.0 mi Calm Calm - N/A   Clear
1:35 AM 56.7 °F 48.4 °F 74% 30.21 in 10.0 mi Calm Calm - N/A   Clear
1:55 AM 57.9 °F 46.6 °F 66% 30.21 in 10.0 mi Calm Calm - N/A   Clear
2:15 AM 57.2 °F 46.0 °F 66% 30.21 in 10.0 mi SW 3.5 mph - N/A   Clear
2:35 AM 58.3 °F 46.9 °F 66% 30.21 in 10.0 mi SSW 4.6 mph - N/A   Clear
2:55 AM 58.3 °F 47.3 °F 67% 30.21 in 10.0 mi South 3.5 mph - N/A   Clear
3:15 AM 58.1 °F 47.1 °F 67% 30.20 in 10.0 mi Calm Calm - N/A   Clear
3:35 AM 58.1 °F 47.3 °F 67% 30.19 in 10.0 mi SSW 4.6 mph - N/A   Clear
3:55 AM 57.7 °F 47.8 °F 70% 30.19 in 10.0 mi SSW 3.5 mph - N/A   Clear
4:15 AM 56.3 °F 48.0 °F 74% 30.19 in 10.0 mi Calm Calm - N/A   Clear
4:35 AM 55.4 °F 48.2 °F 77% 30.19 in 10.0 mi Calm Calm - N/A   Clear
4:55 AM 53.6 °F 48.6 °F 83% 30.19 in 10.0 mi Calm Calm - N/A   Clear
5:35 AM 51.3 °F 48.7 °F 91% 30.19 in 10.0 mi Calm Calm - N/A   Clear
5:55 AM 50.9 °F 49.1 °F 94% 30.19 in 10.0 mi Calm Calm - N/A   Clear
6:15 AM 53.4 °F 51.8 °F 94% 30.18 in 10.0 mi Calm Calm - N/A   Clear
6:35 AM 57.4 °F 51.8 °F 82% 30.18 in 10.0 mi Calm Calm - N/A   Clear
6:55 AM 59.2 °F 52.3 °F 78% 30.19 in 10.0 mi Calm Calm - N/A   Clear
7:15 AM 62.1 °F 54.0 °F 75% 30.19 in 10.0 mi Calm Calm - N/A   Clear
7:35 AM 64.4 °F 54.7 °F 71% 30.20 in 10.0 mi SW 3.5 mph - N/A   Clear
7:55 AM 67.3 °F 55.6 °F 66% 30.20 in 10.0 mi SSW 5.8 mph - N/A   Clear
8:15 AM 69.4 °F 55.9 °F 62% 30.19 in 10.0 mi WSW 6.9 mph - N/A   Clear
8:35 AM 71.1 °F 55.6 °F 58% 30.19 in 10.0 mi SW 8.1 mph 16.1 mph N/A   Clear
8:55 AM 70.2 °F 56.1 °F 61% 30.18 in 10.0 mi SW 9.2 mph - N/A   Clear
9:15 AM 69.4 °F 56.5 °F 63% 30.18 in 10.0 mi SW 6.9 mph - N/A   Clear
9:35 AM 72.0 °F 57.4 °F 60% 30.18 in 10.0 mi SSW 8.1 mph - N/A   Clear
9:55 AM 73.0 °F 57.0 °F 57% 30.17 in 10.0 mi SW 8.1 mph - N/A   Mostly Cloudy
10:15 AM 74.3 °F 57.0 °F 55% 30.16 in 10.0 mi SW 8.1 mph 18.4 mph N/A   Scattered Clouds
10:35 AM 74.1 °F 54.9 °F 51% 30.14 in 10.0 mi SW 13.8 mph 21.9 mph N/A   Clear
10:55 AM 75.4 °F 53.4 °F 46% 30.14 in 10.0 mi SSW 15.0 mph 20.7 mph N/A   Clear
11:15 AM 75.4 °F 53.1 °F 46% 30.13 in 10.0 mi SW 16.1 mph 25.3 mph N/A   Clear
11:35 AM 76.5 °F 53.4 °F 45% 30.12 in 10.0 mi WSW 16.1 mph 21.9 mph N/A   Clear
11:55 AM 76.3 °F 52.7 °F 44% 30.11 in 10.0 mi SW 18.4 mph 23.0 mph N/A   Clear
12:15 PM 77.0 °F 53.8 °F 44% 30.11 in 10.0 mi SW 15.0 mph 23.0 mph N/A   Clear
12:35 PM 77.4 °F 54.9 °F 46% 30.09 in 10.0 mi SW 15.0 mph 23.0 mph N/A   Scattered Clouds
12:55 PM 77.5 °F 55.2 °F 46% 30.09 in 10.0 mi SW 13.8 mph 21.9 mph N/A   Clear
1:15 PM 77.9 °F 55.9 °F 47% 30.07 in 10.0 mi SW 12.7 mph 23.0 mph N/A   Clear
1:35 PM 79.3 °F 56.5 °F 45% 30.07 in 10.0 mi SSW 15.0 mph 21.9 mph N/A   Scattered Clouds
1:55 PM 78.6 °F 56.7 °F 47% 30.06 in 10.0 mi SSW 12.7 mph 21.9 mph N/A   Scattered Clouds
2:15 PM 79.7 °F 57.7 °F 47% 30.05 in 10.0 mi SW 13.8 mph 23.0 mph N/A   Scattered Clouds
2:30 PM 79.3 °F 57.7 °F 47% 30.04 in 10.0 mi SSW 11.5 mph 19.6 mph N/A   Scattered Clouds
2:55 PM 78.6 °F 57.6 °F 48% 30.04 in 10.0 mi SW 11.5 mph 18.4 mph N/A   Scattered Clouds
3:15 PM 79.2 °F 58.5 °F 49% 30.03 in 10.0 mi SSW 11.5 mph 18.4 mph N/A   Mostly Cloudy
3:35 PM 79.5 °F 57.6 °F 47% 30.04 in 10.0 mi SW 15.0 mph 23.0 mph N/A   Mostly Cloudy
3:55 PM 79.9 °F 58.3 °F 48% 30.03 in 10.0 mi WSW 11.5 mph 21.9 mph N/A   Scattered Clouds
4:15 PM 79.2 °F 58.5 °F 49% 30.04 in 10.0 mi WSW 13.8 mph 20.7 mph N/A   Scattered Clouds
4:35 PM 79.7 °F 58.3 °F 48% 30.02 in 10.0 mi SSW 12.7 mph 21.9 mph N/A   Scattered Clouds
4:55 PM 79.9 °F 59.0 °F 49% 30.02 in 10.0 mi SW 10.4 mph 20.7 mph N/A   Scattered Clouds
5:15 PM 79.7 °F 58.3 °F 48% 30.01 in 10.0 mi SW 9.2 mph 18.4 mph N/A   Scattered Clouds
5:35 PM 79.5 °F 59.2 °F 50% 30.01 in 10.0 mi WSW 10.4 mph 18.4 mph N/A   Clear
5:55 PM 79.0 °F 59.2 °F 51% 29.99 in 10.0 mi SW 8.1 mph - N/A   Clear
6:15 PM 78.3 °F 59.4 °F 52% 29.98 in 10.0 mi SW 8.1 mph 17.3 mph N/A   Scattered Clouds
6:35 PM 77.9 °F 59.4 °F 53% 29.97 in 10.0 mi SW 10.4 mph 18.4 mph N/A   Clear
6:55 PM 77.0 °F 59.7 °F 55% 29.97 in 10.0 mi SSW 8.1 mph 16.1 mph N/A   Clear
7:15 PM 76.1 °F 60.1 °F 57% 29.97 in 10.0 mi SW 6.9 mph - N/A   Clear
7:35 PM 75.2 °F 59.9 °F 59% 29.96 in 10.0 mi SSW 10.4 mph 16.1 mph N/A   Clear
7:55 PM 73.9 °F 59.9 °F 61% 29.96 in 10.0 mi SW 8.1 mph - N/A   Clear
8:15 PM 72.9 °F 59.4 °F 62% 29.96 in 10.0 mi SW 8.1 mph 17.3 mph N/A   Clear
8:55 PM 70.5 °F 59.9 °F 69% 29.97 in 10.0 mi SSW 5.8 mph - N/A   Clear
9:10 PM 70.5 °F 59.9 °F 69% 29.97 in 10.0 mi SSW 5.8 mph - N/A   Clear
9:35 PM 69.8 °F 59.5 °F 70% 29.98 in 10.0 mi SW 5.8 mph - N/A   Clear
9:55 PM 69.8 °F 59.2 °F 69% 29.96 in 10.0 mi SSW 5.8 mph - N/A   Clear
10:15 PM 69.1 °F 59.0 °F 70% 29.96 in 10.0 mi SSW 6.9 mph - N/A   Clear
10:35 PM 68.9 °F 59.2 °F 71% 29.95 in 10.0 mi SW 5.8 mph - N/A   Clear
10:55 PM 68.4 °F 59.0 °F 72% 29.97 in 10.0 mi WSW 5.8 mph - N/A   Clear
11:15 PM 68.9 °F 59.2 °F 71% 29.97 in 10.0 mi SW 9.2 mph - N/A   Mostly Cloudy
11:35 PM 69.4 °F 59.0 °F 69% 29.95 in 10.0 mi SW 11.5 mph - N/A   Overcast
11:55 PM 68.5 °F 59.4 °F 72% 29.94 in 10.0 mi SW 9.2 mph - N/A   Mostly Cloudy